Flag for Canada Weather past 2 weeks in Shawinigan, Quebec, Canada

Now
45 °F

Quite cool.


Feels Like: 43 °F
Forecast: 39 / 63 °F
Wind: 3 mph from Southwest

Location: Shawinigan CS

Current Time: Sep 20, 2014 at 12:01:52 PM

Latest Report: Sep 20, 2014 at 9:00 AM


Visibility: N/A

Pressure: 30.02 "Hg

Humidity: 84%

Dew point: 40 °F

Location of ShawiniganLocation

Historic Weather in Shawinigan — Graph

°F

Shawinigan temperature yesterday

Maximum temperature yesterday: 52 °F (at 3:00 PM)
Minimum temperature yesterday: 30 °F (at 5:00 AM)
Average temperature yesterday: 41 °F

Past Weeks' High & Low Weather Summary

 TemperatureHumidityPressure
High82 °F (Sep 5, 4:00 PM)100% (Sep 6, 11:00 AM)32.10 "Hg (Sep 6, 11:00 AM)
Low30 °F (Sep 11, 2:00 PM)27% (Sep 19, 5:00 PM)29.46 "Hg (Sep 11, 1:00 PM)
Average53 °F74%30.07 "Hg
* Reported Sep 5 9:00 AM — Sep 20 9:00 AM, Shawinigan, Weather by CustomWeather, © 2014

Note: Actual official high and low records may vary slightly from our data, if they occured in-between our weather recording intervals... More about our weather records

Advertising

Shawinigan weather history for previous 24 hours

 ConditionsComfort  
Time TempWeatherWind HumidityBarometerVisibility
9:00 AM
Sep 20
45 °FQuite cool.3 mph84%30.02 "HgN/A
8:00 AM43 °FQuite cool.2 mph86%30.04 "HgN/A
7:00 AM41 °FQuite cool.1 mph86%30.06 "HgN/A
6:00 AM40 °FChilly.1 mph86%30.08 "HgN/A
5:00 AM38 °FChilly.1 mph88%30.10 "HgN/A
4:00 AM36 °FChilly.1 mph89%30.12 "HgN/A
3:00 AM35 °FChilly.1 mph88%30.16 "HgN/A
2:00 AM35 °FChilly.1 mph87%30.18 "HgN/A
1:00 AM37 °FChilly.No wind82%30.19 "HgN/A
12:00 AM37 °FChilly.2 mph81%30.19 "HgN/A
11:00 PM
Sep 19
39 °FChilly.1 mph79%30.21 "HgN/A
10:00 PM43 °FQuite cool.2 mph64%30.22 "HgN/A
9:00 PM44 °FQuite cool.3 mph58%30.22 "HgN/A
8:00 PM45 °FQuite cool.2 mph60%30.27 "HgN/A
7:00 PM47 °FCool.2 mph48%30.28 "HgN/A
6:00 PM50 °FCool.3 mph34%30.30 "HgN/A
5:00 PM51 °FCool.6 mph27%30.31 "HgN/A
4:00 PM51 °FCool.7 mph35%30.32 "HgN/A
3:00 PM52 °FCool.2 mph30%30.35 "HgN/A
2:00 PM49 °FCool.3 mph36%30.37 "HgN/A
1:00 PM50 °FCool.6 mph38%30.39 "HgN/A
12:00 PM48 °FCool.3 mph45%30.42 "HgN/A
Weather by CustomWeather, © 2014

See weather overviewHow to use our weather pages